Regional Weather Roundup
Issued by NWS

Home | Current Version | Previous Version | Graphics & Text | Print | Product List | Glossary Off
Versions: 1 2 3 4 5 6 7 8 9 10 11 12 13 14 15 16 17 18 19 20 21 22 23 24 25 26 27 28 29 30 31 32 33 34 35 36 37 38 39 40 41 42 43 44 45 46 47 48 49 50

000
ASUS43 KFSD 190302
RWRSD

WEATHER ROUNDUP FOR SOUTH DAKOTA
NATIONAL WEATHER SERVICE SIOUX FALLS SD
900 PM CST SAT NOV 18 2017

NOTE: "FAIR" INDICATES FEW OR NO CLOUDS BELOW 12,000 FEET WITH NO
SIGNIFICANT WEATHER AND/OR OBSTRUCTIONS TO VISIBILITY.


SDZ001>005-009-010-012>017-190400-
NORTHWEST AND NORTH CENTRAL SOUTH DAKOTA

CITY           SKY/WX    TMP DP  RH WIND       PRES   REMARKS
BUFFALO          N/A     31  21  66 W7        30.03S WCI  24
FAITH            N/A     29  23  78 W8        30.10F WCI  21
MOBRIDGE       PTCLDY    23  17  78 SE5       30.08S WCI  17
$$

SDZ012>016-024>037-041>051-057-063-072>074-190400-
SOUTHWEST AND SOUTH CENTRAL SOUTH DAKOTA

CITY           SKY/WX    TMP DP  RH WIND       PRES   REMARKS
RAPID CTY ARPT CLEAR     24  17  74 CALM      30.15F
PIERRE         CLOUDY    26  21  81 SW6       30.13F WCI  19
CUSTER         CLOUDY    26  11  52 CALM      30.12S
ELLSWORTH AFB  CLEAR     28  18  67 W5        30.14S WCI  22
PHILIP         CLOUDY    33  25  72 W9        30.15F WCI  25
PINE RIDGE     CLOUDY    24  16  71 SW6       30.18S WCI  17
SPEARFISH      FAIR      34  16  47 W7        30.12F WCI  28
WINNER         FAIR      26  21  81 SW7       30.16S WCI  18
$$

SDZ004>011-016>023-039-040-190400-
NORTHEAST SOUTH DAKOTA

CITY           SKY/WX    TMP DP  RH WIND       PRES   REMARKS
ABERDEEN       CLOUDY    16  11  80 SW5       30.12S WCI   9
WATERTOWN      CLEAR     20  14  77 NW7       30.07S WCI  11
BROOKINGS      CLEAR     21  14  74 NW8       30.10S WCI  11
SISSETON         N/A     18  10  71 W5        30.10R WCI  11
$$

SDZ017-020-022-023-036>040-048>070-190400-
SOUTHEAST SOUTH DAKOTA

CITY           SKY/WX    TMP DP  RH WIND       PRES   REMARKS
SIOUX FALLS    CLEAR     27  16  63 W12       30.12S WCI  17
HURON          CLEAR     22  16  78 W10       30.14F WCI  11
CHAMBERLAIN    CLEAR     25  21  84 W5        30.16S WCI  19
MITCHELL       CLEAR     25  17  72 W6        30.17S WCI  18
YANKTON        CLEAR     27  20  75 W8        30.17S WCI  19
$$

ABBREVIATIONS USED IN REMARKS
   TC - TEMPERATURE IN CELSIUS
  WCI - WIND CHILL INDEX
   HX - HEAT INDEX
  VSB - VISIBILITY





USA.gov is the U.S. government's official web portal to all federal, state and local government web resources and services.